[[{"header":{"parameterUnit":"m.s-1","parameterCategory":1,"la1":30.2991,"la2":30.254,"lo1":-89.0895,"lo2":-89.0444,"dy":0.0017,"dx":0.0017,"nx":28,"ny":28,"refTime":"2025-01-28T09:00:00:Z","depth":0,"parameterNumber":2,"parameterNumberName":"U-component_of_WINDS"},"data":[0,0,0,0,0,0,0,0,0,0,0,0,0,0,0,0,0,0,0,0,0,0,0,0,0,0,0,0,0,0,0,0,0,0,0,0,0,0,0,0,0,0,0,0,0,0,0,0,0,0,0,0,0,0,0,0,0,0,1.1941,1.1942,0,1.2034,1.2035,1.2036,1.2065,1.2064,1.2064,1.2063,1.2159,1.2162,1.2165,0,0,0,0,0,0,0,0,0,0,0,0,0,1.1789,1.1792,1.1941,1.1942,1.1943,1.2034,1.2035,1.2036,1.2065,1.2064,1.2064,1.2063,1.2158,1.2161,1.2165,0,0,0,0,0,0,0,0,0,0,0,0,0,1.1866,1.1793,1.1941,1.1968,1.1972,1.2034,1.2035,1.2037,1.2065,1.2064,1.2064,1.2063,1.2157,1.2161,1.2165,1.2207,0,0,1.2179,1.2181,0,0,0,0,0,0,0,0,1.1862,1.1872,1.1963,1.1967,1.1971,1.2037,1.2017,1.2094,1.2065,1.203,1.2063,1.2063,1.2119,1.2126,1.2145,1.2211,1.2215,1.2179,1.2182,1.2184,1.2185,0,0,0,0,0,0,0,1.1856,1.1868,1.1978,1.1964,1.1969,1.1977,1.1987,1.2031,1.2077,1.2033,1.2035,1.2046,1.2121,1.2141,1.2148,1.2216,1.2179,1.2183,1.2186,1.2188,1.2322,1.2323,0,0,0,0,0,0,1.1846,1.1863,1.1975,1.1981,1.1913,1.198,1.1991,1.2016,1.2077,1.2085,1.2046,1.2047,1.2134,1.2143,1.2151,1.2204,1.2184,1.2188,1.2191,1.2321,1.2322,1.2323,0,0,0,0,0,0,1.1843,1.1856,1.1971,1.1923,1.1938,1.1983,1.2011,1.2019,1.2039,1.2087,1.2095,1.2058,1.2134,1.2145,1.2193,1.2208,1.219,1.2194,1.232,1.2321,1.2323,1.2309,0,0,0,0,0,0,1.1838,1.1854,1.187,1.1923,1.194,1.2011,1.2012,1.2021,1.2046,1.2048,1.21,1.2108,1.2134,1.2186,1.2197,1.2213,1.2198,1.2319,1.2321,1.2322,1.2308,1.231,1.2311,0,0,0,0,0,1.1833,1.1862,1.1871,1.1884,1.1961,1.2011,1.2021,1.205,1.2047,1.2064,1.2095,1.2107,1.2204,1.2191,1.2204,1.2221,1.2318,1.232,1.2322,1.2308,1.231,1.2311,0,0,0,0,0,0,1.181,1.187,1.188,1.1927,1.1964,1.2016,1.2037,1.2051,1.2089,1.2089,1.2123,1.2135,1.2181,1.2206,1.219,1.2265,1.2262,1.2266,1.2246,1.2249,1.225,1.2243,1.2201,0,0,0,0,0,1.1811,1.1847,1.1897,1.1934,1.1952,1.1991,1.2015,1.2034,1.2073,1.2089,1.2123,1.2162,1.2201,1.2226,1.2265,1.2313,1.2325,1.2331,1.2332,1.2333,1.2337,1.2365,1.2368,1.233,1.233,1.233,0,0,1.1812,1.1849,1.187,1.193,1.1961,1.1998,1.2004,1.2043,1.2071,1.2095,1.2142,1.2169,1.2214,1.2262,1.2285,1.2284,1.235,1.2336,1.2336,1.2339,1.2367,1.2371,1.2374,1.2331,1.2331,1.2331,0,0,1.1833,1.1865,1.1899,1.1931,1.1977,1.2004,1.2012,1.2063,1.2081,1.2129,1.2149,1.2183,1.225,1.2281,1.2306,1.2341,1.2354,1.2353,1.2359,1.2386,1.2389,1.2392,1.2405,1.2409,1.2356,1.2356,1.2356,0,1.1829,1.1885,1.1916,1.1953,1.198,1.2004,1.204,1.2069,1.2126,1.2144,1.2143,1.2228,1.226,1.2316,1.2325,1.2344,1.2355,1.2347,1.2386,1.2389,1.2393,1.2405,1.241,1.2356,1.2356,1.2356,1.2356,0,1.1878,1.1916,1.1939,1.1994,1.2023,1.2059,1.2096,1.2122,1.2139,1.2166,1.2215,1.2255,1.2302,1.2317,1.2334,1.2376,1.2375,1.2379,1.2377,1.2395,1.2408,1.2413,1.2355,1.2355,1.2356,1.2356,0,0,1.1886,1.1958,1.1966,1.1992,1.2046,1.2077,1.2115,1.2162,1.2183,1.2223,1.2256,1.2313,1.2318,1.2346,1.2367,1.239,1.2416,1.2393,1.2394,1.2396,1.2466,1.2462,1.2467,1.2425,1.2426,1.2427,1.2462,0,1.1915,1.1983,1.2013,1.2068,1.2105,1.2129,1.2163,1.22,1.2226,1.2261,1.2291,1.2331,1.2334,1.2352,1.2376,1.2408,1.2431,1.2406,1.2457,1.2458,1.2445,1.2473,1.2469,1.25,1.2467,1.2468,1.2469,0,1.1956,1.1996,1.2055,1.2106,1.2122,1.2152,1.2198,1.2231,1.2274,1.2292,1.2324,1.2344,1.2386,1.2381,1.2439,1.2422,1.2445,1.2464,1.2465,1.2471,1.2464,1.248,1.2511,1.2515,1.2477,1.2476,1.2476,0,1.1957,1.2025,1.207,1.2091,1.2151,1.2171,1.2197,1.224,1.2266,1.2307,1.2325,1.2369,1.2394,1.2428,1.246,1.2453,1.2516,1.2513,1.2532,1.2531,1.2544,1.2542,1.2578,1.2558,1.2558,1.2558,1.2558,0,1.1985,1.2021,1.2071,1.2098,1.2139,1.2173,1.2212,1.224,1.2278,1.2312,1.2336,1.2367,1.2407,1.2443,1.2469,1.2514,1.2525,1.254,1.2547,1.2538,1.2536,1.2553,1.2552,1.256,1.2559,1.2559,1.2559,0,1.1992,1.2027,1.2077,1.2131,1.2145,1.2173,1.2219,1.2247,1.2275,1.2317,1.2329,1.2373,1.2417,1.2453,1.2511,1.2528,1.2575,1.2582,1.256,1.2564,1.258,1.2578,1.2629,1.2637,1.2611,1.2611,1.2612,0,1.2008,1.2036,1.2092,1.2117,1.2143,1.2181,1.2209,1.2244,1.2272,1.2324,1.2345,1.2392,1.243,1.25,1.2538,1.2583,1.2591,1.2606,1.2598,1.2589,1.2591,1.2589,1.2593,1.2606,1.2606,1.2606,1.2606,0,1.2032,1.2048,1.2087,1.2132,1.2164,1.2202,1.224,1.2258,1.23,1.233,1.2376,1.2406,1.2466,1.2512,1.2561,1.2588,1.2605,1.2609,1.2615,1.2607,1.2593,1.2601,1.2563,1.2607,1.2607,1.2607,1.2607,1.2607,1.2044,1.207,1.2115,1.2157,1.219,1.2225,1.2254,1.2286,1.2324,1.2376,1.2394,1.2441,1.2485,1.2553,1.2581,1.2619,1.262,1.2629,1.2632,1.2634,1.2633,1.2587,1.2628,1.2628,1.2628,1.2628,1.2628,0,1.207,1.21,1.2139,1.2191,1.2225,1.2238,1.2281,1.2308,1.2349,1.2389,1.2427,1.248,1.2525,1.2566,1.2613,1.2636,1.2644,1.2647,1.2646,1.2652,1.2629,1.2618,1.2639,1.2639,1.2639,1.2639,1.2639,1.2639,1.2087,1.2132,1.2154,1.2216,1.2246,1.2292,1.2316,1.2349,1.238,1.2439,1.2476,1.2503,1.2544,1.2594,1.2636,1.2647,1.2664,1.2664,1.2677,1.2655,1.2653,1.2652,1.2642,1.2667,1.2667,1.2697,1.2697,1.2698]},{"header":{"parameterUnit":"m.s-1","parameterCategory":1,"la1":30.2991,"la2":30.254,"lo1":-89.0895,"lo2":-89.0444,"dy":0.0017,"dx":0.0017,"nx":28,"ny":28,"refTime":"2025-01-28T09:00:00:Z","depth":0,"parameterNumber":3,"parameterNumberName":"V-component_of_WINDS"},"data":[0,0,0,0,0,0,0,0,0,0,0,0,0,0,0,0,0,0,0,0,0,0,0,0,0,0,0,0,0,0,0,0,0,0,0,0,0,0,0,0,0,0,0,0,0,0,0,0,0,0,0,0,0,0,0,0,0,0,0.1329,0.1329,0,0.1346,0.1346,0.1346,0.1343,0.1343,0.1343,0.1342,0.1359,0.136,0.136,0,0,0,0,0,0,0,0,0,0,0,0,0,0.1293,0.1294,0.1329,0.1329,0.1329,0.1346,0.1346,0.1346,0.1343,0.1343,0.1342,0.1342,0.1359,0.136,0.136,0,0,0,0,0,0,0,0,0,0,0,0,0,0.1309,0.1294,0.1329,0.133,0.133,0.1345,0.1346,0.1346,0.1343,0.1343,0.1342,0.1342,0.1359,0.136,0.1361,0.1376,0,0,0.1364,0.1364,0,0,0,0,0,0,0,0,0.1308,0.1311,0.1329,0.133,0.133,0.1342,0.1339,0.1356,0.1343,0.1338,0.1342,0.1342,0.1354,0.1355,0.1359,0.1377,0.1378,0.1364,0.1365,0.1365,0.1365,0,0,0,0,0,0,0,0.1307,0.131,0.1335,0.133,0.133,0.1329,0.1331,0.1343,0.1348,0.1339,0.1338,0.134,0.1354,0.1358,0.136,0.1378,0.1364,0.1365,0.1366,0.1366,0.1409,0.1409,0,0,0,0,0,0,0.1306,0.1309,0.1335,0.1336,0.1318,0.133,0.1332,0.1338,0.1348,0.1349,0.1341,0.134,0.1357,0.1358,0.136,0.1379,0.1365,0.1366,0.1367,0.1408,0.1409,0.1409,0,0,0,0,0,0,0.1305,0.1308,0.1334,0.1322,0.1326,0.1331,0.1338,0.1339,0.1343,0.135,0.1351,0.1344,0.1356,0.1359,0.1372,0.138,0.1367,0.1368,0.1407,0.1408,0.1409,0.1417,0,0,0,0,0,0,0.1304,0.1308,0.1314,0.1323,0.1326,0.1346,0.1339,0.134,0.1345,0.1345,0.1353,0.1354,0.1356,0.137,0.1373,0.1381,0.1368,0.1407,0.1408,0.1409,0.1416,0.1418,0.1419,0,0,0,0,0,0.1303,0.1316,0.1315,0.1318,0.1334,0.1347,0.1349,0.1351,0.1346,0.1352,0.1356,0.1354,0.1378,0.1372,0.1375,0.1383,0.1406,0.1408,0.1409,0.1415,0.1417,0.1419,0,0,0,0,0,0,0.1308,0.1317,0.1316,0.1332,0.1338,0.1346,0.1354,0.1353,0.1361,0.136,0.1362,0.1364,0.1378,0.1381,0.1374,0.1398,0.1392,0.1393,0.1395,0.1398,0.1399,0.1398,0.1369,0,0,0,0,0,0.1311,0.1321,0.1328,0.1341,0.1345,0.1349,0.1354,0.1355,0.1362,0.1365,0.137,0.1377,0.1386,0.1392,0.14,0.1416,0.1418,0.1423,0.1424,0.1426,0.1428,0.1436,0.1439,0.1413,0.1413,0.1413,0,0,0.1318,0.1324,0.133,0.1342,0.1348,0.1358,0.1351,0.1362,0.1369,0.1366,0.138,0.1383,0.1391,0.1406,0.1412,0.1409,0.1435,0.1427,0.1428,0.1429,0.1438,0.144,0.1442,0.1413,0.1413,0.1413,0,0,0.1335,0.134,0.1352,0.1357,0.1365,0.1368,0.137,0.1378,0.1381,0.1394,0.1392,0.14,0.1416,0.1421,0.1426,0.1444,0.1443,0.1447,0.1456,0.1464,0.1466,0.1468,0.1475,0.1477,0.1448,0.1448,0.1448,0,0.1342,0.1357,0.1358,0.1369,0.1374,0.1372,0.1384,0.1389,0.1399,0.1403,0.1399,0.1419,0.1424,0.144,0.1444,0.1448,0.1451,0.1446,0.1466,0.1468,0.1469,0.1476,0.1478,0.1449,0.1449,0.1448,0.1448,0,0.1365,0.1376,0.1384,0.1394,0.1401,0.1412,0.1414,0.1421,0.142,0.1423,0.1436,0.1442,0.1452,0.1455,0.1455,0.1471,0.1469,0.1465,0.1459,0.1472,0.1478,0.1481,0.1449,0.1449,0.1449,0.1449,0,0,0.1388,0.1398,0.1401,0.1405,0.1414,0.1422,0.1432,0.1442,0.1447,0.1454,0.1463,0.1476,0.1472,0.1478,0.1478,0.1485,0.1499,0.1481,0.1481,0.1485,0.1518,0.1521,0.1524,0.1498,0.1498,0.1499,0.1517,0,0.1406,0.1426,0.1426,0.1444,0.1454,0.1451,0.146,0.1466,0.1469,0.1477,0.1479,0.1488,0.1483,0.1486,0.1493,0.1496,0.1506,0.1495,0.1507,0.1507,0.1506,0.1527,0.1531,0.1548,0.152,0.152,0.152,0,0.1431,0.1438,0.1457,0.1464,0.1467,0.1476,0.1485,0.1492,0.1499,0.15,0.1505,0.1504,0.1515,0.1507,0.1522,0.1514,0.1519,0.1521,0.1522,0.1524,0.1515,0.1531,0.1554,0.1557,0.1524,0.1524,0.1523,0,0.1446,0.1461,0.1474,0.1478,0.1485,0.1491,0.1495,0.1501,0.1506,0.1513,0.1517,0.1525,0.153,0.1536,0.1537,0.1531,0.1552,0.1544,0.1553,0.1554,0.1559,0.1559,0.1584,0.156,0.156,0.156,0.156,0,0.1467,0.1479,0.1481,0.1489,0.1502,0.1502,0.1515,0.1518,0.1523,0.1531,0.1529,0.1537,0.1537,0.1545,0.1546,0.1558,0.156,0.1561,0.1562,0.1562,0.1562,0.1566,0.1565,0.1561,0.1561,0.1561,0.156,0,0.1487,0.1489,0.1503,0.1509,0.1511,0.152,0.1525,0.1532,0.1534,0.1545,0.1547,0.155,0.1559,0.1561,0.1571,0.1572,0.1587,0.1585,0.1585,0.1585,0.1594,0.1594,0.1624,0.1628,0.1601,0.1601,0.1601,0,0.1501,0.151,0.1517,0.1522,0.1526,0.1535,0.154,0.154,0.1546,0.1554,0.156,0.1569,0.1577,0.1591,0.1594,0.1602,0.1602,0.1611,0.1603,0.1603,0.1603,0.1603,0.1604,0.1614,0.1614,0.1614,0.1614,0,0.1526,0.1526,0.1534,0.1543,0.1549,0.1556,0.1562,0.1566,0.1567,0.1574,0.1583,0.1589,0.1599,0.1608,0.1616,0.1619,0.1617,0.1617,0.1619,0.1621,0.1621,0.1622,0.159,0.1616,0.1616,0.1616,0.1616,0.1616,0.1544,0.1552,0.1558,0.1567,0.1571,0.1577,0.1584,0.1587,0.1595,0.1604,0.1603,0.1613,0.1618,0.1629,0.1632,0.164,0.1637,0.1641,0.1642,0.1643,0.1645,0.1618,0.1641,0.1641,0.1641,0.1641,0.1641,0,0.157,0.1573,0.1581,0.159,0.1597,0.1593,0.1599,0.1606,0.1615,0.162,0.1627,0.1638,0.1646,0.1649,0.1657,0.1663,0.1662,0.1665,0.1665,0.1666,0.1647,0.1644,0.1666,0.1666,0.1666,0.1666,0.1666,0.1666,0.1584,0.1597,0.1598,0.1613,0.1616,0.1626,0.163,0.1635,0.1639,0.1651,0.1658,0.166,0.1664,0.1672,0.168,0.168,0.1684,0.1688,0.1688,0.167,0.1667,0.1665,0.1663,0.1688,0.1688,0.1707,0.1707,0.1707]}]]